Temperature
17 17 17 17 17 16 16 16 16 16 16 17 17 17 17 17 17 17 17 17 18 18 18 17 17 17 17 17 17 17 17 17 17 17 17 17 17 17 17 17 17 17 17
16 16 16 16 16 16 16 16 16 16 16 16 16 16 16 16 17 17 17 17 17 18 18 18 17 17 17 17 17 17 17 17 17 17 17 17 17 17 17 17 17 17 16
15 15 15 15 15 15 15 15 15 15 16 16 16 16 16 16 16 16 16 17 17 17 17 17 17 17 17 17 17 17 17 17 17 17 17 17 17 17 17 17 17 17 16
15 14 14 15 14 14 14 15 15 15 15 15 15 15 16 16 16 16 16 16 16 16 17 17 17 17 17 17 17 17 17 17 17 17 17 17 17 17 17 17 17 17 17
14 13 14 14 14 14 14 14 15 14 14 14 15 15 15 15 15 16 16 16 16 16 16 16 17 17 17 17 17 17 17 17 17 17 17 17 17 17 17 17 17 17 17
13 13 13 13 13 13 13 13 13 13 14 14 14 15 15 15 15 15 15 16 16 16 16 16 16 17 17 17 17 17 17 17 17 17 17 17 17 17 17 17 17 17 17
12 12 12 12 12 13 13 13 13 13 14 14 14 15 15 16 16 16 15 16 16 15 15 16 16 16 16 17 17 17 17 17 17 17 17 17 17 17 17 17 17 17 17
12 12 11 12 12 12 12 12 12 13 13 14 14 14 16 16 16 16 15 15 15 15 15 15 16 16 16 16 16 16 17 17 17 17 17 17 17 17 17 17 17 17 17
11 11 11 11 11 12 12 12 12 12 13 13 13 14 15 16 15 16 15 15 15 15 15 15 15 15 16 16 16 16 16 17 17 17 17 17 17 17 16 17 17 17 16
11 11 10 10 11 11 11 11 12 11 12 13 13 13 13 13 13 15 15 15 15 15 15 15 15 15 15 15 16 16 16 16 16 16 16 16 16 16 17 16 16 16 16
11 10 10 10 10 10 10 10 10 11 11 12 12 13 13 13 13 13 14 14 14 14 14 15 15 15 15 15 15 15 16 16 16 16 16 16 16 16 16 16 16 16 16
11 11 10 10 10 10 10 10 10 10 10 10 11 12 12 13 13 13 14 14 14 14 14 14 15 15 15 15 15 15 15 15 15 16 16 16 16 16 16 16 16 16 16
11 11 10 9 10 9 9 9 9 9 10 10 10 11 11 12 12 12 13 13 14 14 14 14 14 15 14 15 15 15 15 15 15 15 16 16 16 16 16 16 16 16 16
11 10 10 9 9 9 9 9 9 9 9 9 10 10 10 11 11 12 12 12 13 14 14 14 14 14 14 14 14 14 14 15 15 15 16 16 16 16 16 16 16 16 16
10 10 10 9 9 9 9 9 9 9 9 9 9 10 10 10 11 11 11 11 12 13 14 14 13 13 13 13 14 14 14 14 15 15 15 15 16 16 16 16 16 16 16
10 10 10 9 9 9 9 9 9 9 9 9 9 9 9 10 10 10 10 11 11 12 13 13 13 13 13 13 14 14 14 14 15 15 15 15 15 16 16 16 16 16 16
10 10 9 9 9 9 9 8 8 8 8 8 8 9 9 8 9 10 10 10 11 11 12 12 13 13 12 13 13 14 14 14 14 15 15 15 15 15 15 16 16 16 16
10 10 9 9 9 9 9 8 8 8 8 8 8 8 8 9 9 9 9 10 10 10 11 11 12 12 12 12 13 13 14 14 14 14 15 15 15 15 15 16 16 16 16
10 10 9 9 9 9 9 9 8 8 8 8 8 8 8 8 8 9 9 9 10 10 10 11 11 12 12 12 12 13 13 14 14 14 14 14 14 15 15 15 15 16 16
10 9 9 9 9 9 9 9 8 8 8 8 8 8 8 8 8 8 8 8 9 9 10 10 11 11 12 12 12 12 13 13 13 14 14 14 14 14 14 15 15 15 16
10 9 9 9 9 9 9 9 8 8 8 8 8 8 8 8 8 8 8 9 9 9 10 10 11 11 12 12 12 12 13 13 13 13 13 14 14 14 14 14 15 15 15
9 9 9 9 9 9 9 9 8 8 8 8 8 8 8 8 8 8 8 8 8 8 9 9 10 11 11 12 12 12 12 12 12 13 13 13 14 14 14 14 14 15 15
9 9 9 9 9 9 9 9 9 8 8 8 8 8 8 8 8 7 7 7 8 8 8 8 9 10 10 11 11 11 12 12 12 13 13 13 13 13 13 14 14 14 15
9 9 9 9 9 9 9 9 8 8 8 8 8 8 8 8 8 7 7 7 7 7 7 8 7 8 9 9 10 10 11 11 12 12 12 12 13 13 13 13 14 14 14
9 9 9 9 9 9 9 9 8 8 8 8 8 8 8 7 7 7 7 7 7 7 7 8 8 8 8 9 9 9 10 11 11 12 12 12 12 12 12 12 13 13 14
9 9 9 9 9 9 9 9 8 8 8 8 8 8 8 8 7 7 7 6 7 7 7 8 8 8 8 8 9 9 9 11 11 11 11 12 12 12 11 12 12 12 13
Wind_Speed
4 4 3 4 5 5 5 5 6 7 8 10 11 13 13 15 15 15 13 16 18 19 19 20 20 22 23 23 22 22 21 21 20 20 19 19 18 18 17 16 16 15 15
4 4 3 3 4 4 5 6 6 6 7 7 9 11 13 15 16 17 16 16 19 20 21 21 22 23 24 25 25 24 24 23 23 22 22 21 20 20 19 18 17 17 16
5 5 4 4 3 4 4 5 6 6 7 7 9 10 11 13 14 16 17 16 17 20 23 24 24 23 25 26 26 27 27 26 25 25 24 23 22 22 21 20 19 19 18
6 6 5 5 4 6 5 5 6 6 6 7 8 8 9 10 13 14 16 17 17 17 20 25 25 25 25 26 27 28 29 29 28 27 26 25 25 24 23 23 22 21 20
7 7 5 4 6 6 5 6 6 7 8 7 8 9 9 10 10 12 14 16 17 18 18 20 25 26 27 28 28 29 30 31 30 30 29 27 27 26 25 25 24 23 22
7 8 6 4 7 6 6 5 6 6 7 7 9 9 9 10 10 11 12 13 16 18 20 20 20 22 28 28 29 29 30 31 32 31 31 30 29 28 27 26 25 25 24
6 6 7 5 6 6 6 8 7 8 7 6 8 9 9 11 11 10 10 10 12 15 17 18 18 18 19 28 30 29 30 31 32 32 31 31 30 29 29 28 27 27 26
7 6 6 8 6 6 7 7 7 8 8 6 7 9 8 7 6 7 7 8 10 9 12 15 17 17 19 18 22 30 30 31 32 32 32 32 31 30 30 30 29 29 28
6 6 7 7 7 8 7 7 8 9 8 8 6 6 7 6 6 4 5 6 6 6 8 9 13 15 18 19 19 24 30 31 32 32 33 32 31 31 31 30 30 30 29
6 6 6 6 7 8 6 8 6 7 8 9 6 5 6 7 6 6 6 4 5 6 7 7 9 11 15 16 19 21 25 29 31 32 33 33 32 31 31 31 31 30 30
5 6 6 6 6 7 6 7 7 8 8 8 8 7 7 6 8 8 9 8 7 6 6 7 8 8 12 15 16 20 23 26 28 30 32 33 33 33 33 33 32 31 31
5 5 6 6 7 7 7 7 7 8 7 8 9 9 9 9 8 8 10 10 9 7 8 7 8 7 8 12 16 18 20 23 25 27 28 31 33 34 34 33 33 33 32
6 5 6 6 7 7 7 8 8 8 9 9 9 9 9 9 9 9 10 11 11 9 7 7 6 5 5 6 10 15 19 21 23 24 26 28 31 34 34 35 35 34 33
8 7 8 8 8 8 9 8 9 9 8 9 10 10 10 10 10 9 10 11 12 10 8 7 4 3 3 4 6 10 14 19 21 22 24 26 28 31 33 34 35 35 34
8 8 9 9 9 9 9 10 10 9 9 10 11 10 10 10 10 10 10 10 11 12 10 7 4 3 4 5 5 8 11 14 18 20 22 24 26 28 30 32 34 34 34
9 10 10 10 10 10 10 10 11 10 10 10 10 11 10 11 10 9 10 10 11 12 12 10 7 6 6 8 7 7 9 11 14 16 19 21 23 26 29 31 32 33 34
10 10 11 11 11 11 11 10 11 11 12 12 12 12 12 12 11 11 10 10 11 11 13 12 9 7 7 8 8 7 7 9 10 14 17 18 20 22 26 28 30 31 32
10 11 11 11 12 12 11 11 12 12 12 13 13 13 13 11 12 12 11 12 12 11 13 14 11 9 8 8 8 7 5 5 6 8 12 14 15 18 21 25 27 29 30
11 11 11 12 12 12 12 12 12 13 13 13 13 13 13 13 13 12 12 13 12 12 12 13 13 10 9 8 7 7 6 4 4 6 8 10 12 14 17 20 23 25 27
11 12 12 12 12 12 13 13 13 13 13 13 13 14 14 14 14 14 13 13 13 13 12 13 13 11 10 8 7 7 6 5 4 4 4 4 7 10 13 16 18 22 24
12 12 12 12 13 12 12 12 12 13 13 14 14 14 14 14 13 13 13 13 12 12 12 12 12 11 11 8 8 6 6 5 5 4 4 4 4 5 7 11 14 18 21
12 12 12 13 13 12 6 5 11 14 14 15 15 14 14 14 15 17 18 18 17 15 14 13 12 12 11 11 8 7 6 6 5 5 5 4 3 3 3 5 9 15 18
12 12 12 13 13 13 9 10 12 13 15 15 15 14 13 13 12 14 16 20 21 22 21 17 16 15 13 11 10 10 8 7 7 5 6 4 3 3 2 3 8 11 14
12 12 12 13 13 13 10 12 11 14 16 16 16 15 15 15 14 13 14 14 15 17 18 19 18 17 16 13 11 11 9 8 6 5 6 4 4 3 2 3 5 8 12
12 12 13 13 14 14 11 12 12 12 13 15 15 15 15 15 11 9 14 15 16 15 15 16 15 15 13 11 9 10 10 8 7 5 4 4 4 3 3 2 4 6 9
12 13 13 13 14 14 11 10 11 11 13 13 13 13 13 15 11 8 13 15 16 15 15 14 16 17 18 17 15 15 13 11 8 6 5 5 5 5 4 2 2 3 6
Wind_Direction
308 302 298 295 289 290 278 275 273 270 264 254 248 243 237 234 234 233 228 207 209 215 221 224 222 218 216 215 215 214 212 210 207 204 203 201 197 194 194 193 193 190 187
334 313 287 297 295 298 310 297 288 279 269 266 258 253 247 242 237 234 235 222 214 218 222 225 226 223 220 217 216 215 215 214 211 208 206 204 202 199 199 198 198 197 195
336 313 300 285 309 306 297 288 290 279 270 266 259 256 252 247 243 236 235 234 228 222 222 225 226 225 223 221 219 217 216 215 213 211 209 208 206 204 202 201 201 201 201
330 307 299 296 317 295 294 298 289 294 289 284 276 268 259 249 244 240 236 235 233 233 226 223 225 225 225 224 223 220 218 216 214 212 211 211 209 207 206 204 204 204 204
333 311 307 321 295 288 294 299 310 307 300 295 284 269 262 254 247 242 238 237 234 232 235 228 221 223 225 227 226 224 221 218 215 213 212 212 212 210 208 207 206 206 206
340 324 303 315 300 291 293 300 304 294 295 294 292 287 273 262 251 244 241 238 234 232 232 235 229 225 224 225 226 224 223 221 217 215 213 213 213 212 210 209 208 208 208
340 325 317 315 298 296 302 296 295 291 285 302 296 289 275 255 246 244 241 243 240 235 234 235 235 233 228 222 223 223 223 222 218 215 215 214 214 213 211 211 210 210 210
326 319 330 308 308 302 285 288 285 292 296 296 301 304 296 276 241 244 238 235 242 242 239 237 236 234 234 230 221 218 221 221 219 216 216 216 215 213 212 212 212 212 212
316 320 315 314 315 298 301 303 290 280 289 290 287 297 301 305 321 268 258 251 251 252 249 248 242 239 234 230 230 220 218 219 219 218 215 214 214 213 213 213 214 214 214
304 307 308 309 307 304 307 293 300 295 282 283 278 267 276 301 297 296 283 275 274 268 265 263 258 246 239 235 231 230 219 217 218 219 216 213 213 214 214 214 215 216 216
289 295 302 305 302 297 307 308 304 290 285 281 287 283 275 267 262 276 288 295 294 287 279 270 264 256 244 237 235 231 222 219 219 218 217 215 213 213 215 216 218 219 219
290 290 292 296 293 300 300 293 293 281 284 291 288 284 280 277 276 279 283 287 290 291 296 286 270 259 248 236 232 231 224 219 218 217 217 217 216 215 215 216 218 220 221
296 300 300 293 294 294 289 287 281 285 282 279 276 278 280 279 281 281 282 286 288 287 281 277 276 273 264 249 235 228 229 222 219 219 220 219 219 217 216 216 218 220 221
298 306 291 285 285 285 284 282 279 273 271 273 273 275 278 274 276 274 275 283 286 284 275 273 290 299 318 291 267 240 234 222 220 221 222 221 220 219 217 216 216 218 220
289 289 287 283 282 282 280 278 274 277 275 271 272 265 262 272 269 270 271 271 276 282 281 278 266 282 315 307 297 268 246 228 222 220 222 222 222 221 218 217 215 215 216
286 286 283 282 281 280 277 272 272 266 267 267 268 275 275 273 275 272 268 266 264 269 276 278 275 281 302 302 292 279 259 233 223 221 220 222 223 223 220 218 215 214 213
285 282 281 282 281 281 277 272 270 274 268 268 267 265 263 268 272 274 269 265 262 262 268 273 270 268 275 286 295 291 268 240 225 219 221 222 222 222 220 216 213 212 210
280 282 282 281 281 281 277 272 271 271 269 267 266 266 265 264 261 264 269 268 266 266 267 273 276 272 266 271 279 284 272 245 229 211 215 219 220 221 217 213 210 209 209
280 282 282 280 281 281 278 274 271 270 268 268 267 265 264 264 263 262 262 264 265 262 259 265 267 266 265 263 270 270 261 238 225 207 202 210 218 220 215 211 208 207 207
281 282 282 281 281 279 276 273 272 270 269 268 266 264 263 262 260 260 259 258 262 266 263 261 263 262 256 252 255 258 250 228 215 203 188 186 200 210 211 207 206 205 205
282 283 282 281 280 278 273 276 279 277 275 273 269 264 260 258 264 265 266 264 260 257 260 258 257 257 253 247 248 249 253 237 218 206 187 179 180 193 196 196 199 200 199
284 283 281 281 280 279 291 285 276 280 278 274 272 269 265 252 244 239 248 258 265 265 264 266 262 259 260 256 250 252 253 242 227 202 191 180 174 170 176 181 183 189 193
286 283 281 280 279 278 265 252 251 269 273 272 271 271 269 266 251 251 240 234 243 247 253 261 266 268 267 259 258 252 242 244 246 201 183 175 158 134 73 91 152 178 186
287 284 283 281 280 276 256 245 247 263 268 268 267 266 266 267 263 259 261 254 248 242 237 238 247 257 262 271 267 261 262 252 251 222 191 176 157 130 91 78 118 168 179
286 284 282 281 280 278 258 240 244 272 268 268 267 265 264 264 259 241 256 260 260 256 247 240 249 256 274 287 282 268 251 239 234 216 195 169 146 128 118 91 78 133 163
283 284 285 284 282 280 270 238 233 267 272 273 270 265 252 247 259 237 252 256 257 256 256 247 232 238 246 246 238 245 250 244 233 214 188 168 151 146 136 108 91 110 129
Height
1555 1554 1553 1552 1552 1552 1552 1551 1551 1551 1550 1551 1551 1552 1553 1554 1555 1557 1559 1559 1561 1564 1566 1568 1571 1573 1575 1577 1579 1581 1584 1586 1588 1590 1592 1595 1597 1599 1600 1602 1604 1605 1607
1553 1552 1551 1550 1550 1549 1548 1548 1548 1547 1547 1547 1547 1547 1547 1549 1549 1551 1553 1554 1555 1558 1561 1563 1566 1568 1571 1574 1576 1578 1580 1583 1585 1588 1590 1592 1595 1597 1599 1601 1603 1604 1606
1550 1549 1549 1548 1548 1547 1545 1545 1545 1544 1543 1543 1542 1542 1542 1542 1543 1544 1546 1548 1550 1551 1554 1557 1560 1563 1565 1568 1571 1574 1576 1579 1581 1584 1587 1589 1592 1594 1597 1599 1601 1603 1605
1547 1547 1547 1547 1544 1545 1544 1543 1542 1542 1541 1539 1539 1538 1538 1537 1537 1538 1539 1541 1543 1545 1548 1550 1553 1556 1559 1562 1565 1568 1572 1574 1577 1580 1583 1586 1589 1591 1594 1596 1599 1601 1603
1544 1544 1544 1543 1542 1542 1542 1541 1540 1539 1538 1536 1535 1534 1533 1532 1532 1533 1533 1534 1536 1538 1540 1543 1545 1548 1551 1555 1558 1562 1565 1569 1572 1575 1578 1582 1585 1587 1590 1593 1596 1598 1600
1542 1542 1542 1540 1540 1540 1539 1538 1537 1535 1534 1533 1532 1530 1529 1528 1527 1527 1528 1529 1530 1531 1533 1536 1538 1540 1543 1547 1550 1554 1558 1562 1566 1569 1573 1577 1580 1583 1586 1589 1592 1595 1597
1541 1539 1540 1538 1537 1537 1536 1536 1535 1534 1532 1531 1529 1527 1525 1523 1523 1522 1522 1523 1524 1525 1526 1528 1530 1532 1535 1537 1541 1546 1550 1554 1559 1563 1567 1571 1574 1578 1581 1584 1588 1591 1593
1539 1539 1536 1536 1535 1534 1533 1532 1531 1531 1530 1529 1527 1525 1522 1521 1519 1519 1518 1518 1518 1519 1520 1521 1523 1524 1527 1530 1532 1536 1541 1546 1550 1555 1559 1564 1568 1572 1576 1579 1583 1586 1589
1537 1535 1534 1533 1532 1531 1531 1529 1528 1528 1527 1526 1525 1525 1522 1519 1518 1517 1516 1515 1514 1514 1515 1516 1516 1517 1519 1521 1524 1528 1532 1537 1542 1547 1552 1556 1561 1565 1569 1573 1577 1580 1584
1535 1533 1532 1530 1529 1529 1527 1526 1526 1524 1524 1524 1523 1522 1521 1520 1518 1515 1514 1513 1512 1511 1511 1511 1511 1511 1512 1513 1516 1519 1523 1528 1533 1538 1543 1548 1553 1558 1562 1567 1571 1574 1578
1533 1531 1529 1528 1526 1526 1524 1522 1521 1521 1521 1520 1520 1519 1518 1517 1516 1515 1512 1511 1510 1509 1508 1507 1507 1506 1506 1507 1509 1511 1515 1519 1525 1530 1535 1540 1545 1550 1554 1559 1563 1568 1572
1532 1530 1527 1525 1524 1523 1521 1519 1518 1518 1517 1516 1515 1516 1515 1514 1513 1512 1510 1508 1507 1506 1504 1503 1503 1502 1501 1501 1502 1504 1507 1511 1516 1522 1527 1532 1536 1541 1546 1551 1555 1560 1564
1530 1527 1525 1522 1521 1519 1517 1516 1515 1514 1513 1512 1511 1511 1511 1511 1510 1509 1508 1505 1503 1502 1501 1500 1499 1498 1497 1496 1497 1498 1501 1504 1509 1514 1519 1523 1528 1533 1538 1542 1547 1552 1557
1526 1523 1521 1519 1517 1516 1514 1513 1512 1511 1510 1508 1508 1507 1506 1506 1506 1505 1504 1503 1500 1498 1497 1496 1495 1494 1493 1492 1493 1494 1495 1498 1501 1506 1510 1514 1519 1524 1529 1534 1539 1544 1549
1522 1520 1517 1515 1514 1512 1510 1508 1508 1507 1506 1504 1504 1503 1502 1502 1501 1500 1500 1499 1499 1496 1493 1493 1492 1491 1490 1490 1489 1489 1490 1492 1495 1498 1502 1506 1510 1515 1520 1525 1530 1535 1540
1517 1515 1513 1511 1509 1508 1506 1504 1503 1503 1501 1500 1499 1498 1497 1497 1497 1496 1495 1494 1494 1493 1490 1489 1489 1488 1487 1487 1486 1486 1485 1487 1489 1492 1495 1498 1502 1506 1511 1516 1521 1526 1532
1512 1510 1508 1506 1505 1503 1502 1500 1499 1498 1496 1495 1494 1494 1492 1491 1491 1491 1490 1490 1489 1488 1486 1485 1485 1484 1483 1482 1482 1482 1482 1482 1484 1486 1488 1491 1494 1497 1502 1507 1512 1518 1523
1507 1506 1504 1502 1500 1498 1497 1495 1493 1493 1491 1490 1489 1489 1488 1487 1486 1485 1485 1484 1484 1483 1482 1480 1480 1480 1479 1478 1477 1477 1478 1478 1479 1480 1482 1484 1487 1489 1493 1498 1503 1509 1515
1503 1501 1499 1497 1495 1493 1491 1490 1488 1487 1486 1485 1484 1483 1482 1481 1480 1480 1479 1479 1479 1478 1477 1476 1475 1475 1475 1474 1474 1473 1473 1474 1474 1475 1477 1478 1480 1482 1486 1490 1495 1501 1507
1498 1496 1494 1491 1489 1487 1486 1484 1483 1482 1480 1479 1478 1477 1476 1475 1475 1474 1474 1473 1473 1473 1472 1472 1471 1470 1470 1470 1469 1469 1469 1470 1470 1471 1472 1473 1475 1477 1479 1483 1488 1494 1500
1493 1491 1488 1486 1484 1482 1481 1480 1478 1476 1475 1473 1472 1471 1470 1469 1468 1468 1468 1468 1468 1468 1467 1467 1466 1466 1466 1465 1465 1465 1465 1465 1466 1467 1468 1469 1471 1472 1474 1477 1482 1487 1493
1487 1485 1483 1480 1478 1477 1475 1473 1471 1470 1468 1467 1465 1464 1463 1462 1460 1460 1459 1460 1461 1461 1462 1462 1461 1461 1461 1461 1461 1461 1461 1461 1462 1463 1464 1465 1467 1468 1470 1473 1477 1482 1488
1482 1480 1477 1475 1472 1471 1469 1467 1465 1463 1462 1460 1459 1458 1457 1457 1455 1454 1453 1452 1452 1452 1454 1455 1455 1456 1456 1457 1457 1457 1457 1457 1458 1459 1460 1461 1463 1465 1467 1469 1473 1478 1483
1477 1474 1472 1469 1467 1465 1463 1461 1459 1457 1455 1453 1452 1451 1450 1449 1449 1448 1447 1447 1446 1446 1446 1447 1447 1448 1451 1451 1452 1452 1453 1453 1454 1455 1456 1458 1459 1462 1465 1467 1470 1474 1479
1471 1469 1466 1464 1461 1458 1457 1455 1453 1450 1449 1447 1446 1444 1443 1442 1441 1440 1440 1440 1439 1440 1440 1440 1440 1441 1442 1444 1446 1447 1449 1449 1449 1450 1452 1454 1456 1459 1462 1464 1468 1471 1475
1466 1463 1461 1458 1455 1452 1451 1448 1446 1444 1443 1441 1439 1437 1436 1434 1434 1433 1433 1433 1432 1432 1433 1434 1433 1433 1434 1436 1438 1440 1443 1445 1445 1446 1447 1450 1452 1456 1459 1462 1465 1468 1472